EW2270 Weather Reports


time (UTC)temp
F
wind
direction
speed
knots
gust
knots
rain 1hr
in
rain 24hr
in
rain mn
in
humidity
%
barometer
mb
20260903224520 63 337 2.6 5.2 0.00 0.42 0.11 48 1008.3
20260903223030 63 360 2.6 4.3 0.00 0.42 0.11 49 1008.5
20260903221520 63 316 2.6 6.1 0.00 0.42 0.11 49 1008.5
20260903220019 63 9 3.5 7.0 0.00 0.42 0.11 49 1008.3
20260903214520 63 15 1.7 6.1 0.00 0.42 0.11 48 1008.5
20260903213019 63 342 1.7 5.2 0.00 0.42 0.11 47 1009.0
20260903211517 63 310 0.9 4.3 0.00 0.42 0.11 47 1009.2
20260903210017 63 34 0.9 5.2 0.00 0.42 0.11 48 1008.9
20260903204516 63 95 0.0 5.2 0.00 0.42 0.11 47 1009.1
20260903203019 63 34 0.0 5.2 0.00 0.42 0.11 48 1009.6
20260903201512 62 310 3.5 5.2 0.00 0.42 0.11 48 1009.6
20260903200012 62 10 2.6 5.2 0.00 0.42 0.11 49 1009.7
20260903194511 62 347 1.7 5.2 0.00 0.42 0.11 49 1009.9
20260903193010 62 321 4.3 5.2 0.00 0.42 0.11 49 1009.6
20260903191510 61 315 1.7 5.2 0.00 0.42 0.11 48 1009.9
20260903190007 61 307 1.7 4.3 0.00 0.42 0.11 50 1009.9
20260903184506 61 320 1.7 4.3 0.00 0.42 0.11 52 1010.2
20260903183005 60 321 2.6 5.2 0.00 0.42 0.11 52 1010.1
20260903181504 60 301 3.5 5.2 0.00 0.42 0.11 51 1010.1
20260903180004 60 342 2.6 6.1 0.00 0.42 0.11 53 1010.2
20260903174507 60 320 3.5 7.0 0.00 0.42 0.11 51 1010.2
20260903173002 60 305 2.6 7.0 0.00 0.42 0.11 56 1010.3
20260903171500 60 276 2.6 6.1 0.00 0.42 0.11 57 1010.4
20260903170100 60 252 4.3 8.7 0.00 0.42 0.11 55 1010.3
20260903164558 60 281 4.3 7.8 0.00 0.42 0.11 54 1010.2
20260903163155 59 222 2.6 7.0 0.00 0.42 0.11 59 1010.3
20260903161554 59 214 4.3 7.0 0.00 0.42 0.11 61 1010.3
20260903160105 59 185 3.5 6.1 0.00 0.42 0.11 64 1010.4
20260903154551 59 172 4.3 8.7 0.00 0.42 0.11 68 1010.4
20260903153048 58 174 1.7 5.2 0.00 0.42 0.11 70 1010.4
20260903151543 57 243 0.0 3.5 0.00 0.42 0.11 79 1010.5
20260903150040 56 108 0.0 1.7 0.01 0.42 0.11 80 1010.5
20260903144542 55 108 0.0 1.7 0.01 0.42 0.11 83 1010.7
20260903143039 54 109 0.0 3.5 0.01 0.42 0.11 84 1010.6
20260903141537 54 101 3.5 4.3 0.01 0.42 0.11 84 1010.4
20260903140036 54 119 0.0 3.5 0.00 0.41 0.10 86 1010.5
20260903134537 54 141 0.0 0.0 0.00 0.41 0.10 85 1010.4
20260903133034 54 141 0.0 1.7 0.00 0.41 0.10 83 1010.2
20260903131533 54 141 1.7 3.5 0.00 0.41 0.10 83 1010.4
20260903130031 54 149 0.0 2.6 0.00 0.41 0.10 84 1010.1
20260903124529 54 143 2.6 4.3 0.00 0.41 0.10 84 1009.9
20260903123029 54 131 1.7 4.3 0.00 0.41 0.10 86 1009.9
20260903121525 54 145 0.0 2.6 0.00 0.41 0.10 89 1009.7
20260903120025 53 168 0.0 0.9 0.00 0.41 0.10 91 1009.6
20260903114524 53 114 0.0 0.9 0.00 0.41 0.10 91 1009.3
20260903113033 53 317 0.0 1.7 0.00 0.41 0.10 89 1009.4
20260903111522 54 293 0.9 6.1 0.01 0.41 0.10 88 1009.6
20260903110020 54 304 2.6 4.3 0.01 0.41 0.10 87 1009.3
20260903104520 54 345 1.7 2.6 0.04 0.41 0.10 87 1009.2
20260903103019 53 131 0.0 1.7 0.06 0.41 0.10 90 1009.3
20260903101517 53 137 0.0 3.5 0.06 0.40 0.09 89 1009.2
20260903100016 54 103 3.5 5.2 0.08 0.40 0.09 88 1009.1
20260903094514 54 146 0.0 0.9 0.05 0.37 0.06 87 1009.2
20260903093015 54 146 0.0 0.9 0.03 0.35 0.04 87 1009.3
20260903091510 54 108 0.0 0.0 0.03 0.34 0.03 88 1009.0
20260903090024 54 108 0.0 0.0 0.01 0.32 0.01 88 1008.9
20260903084505 54 108 0.0 0.0 0.01 0.32 0.01 87 1008.6
20260903083005 55 108 0.0 0.0 0.01 0.32 0.01 86 1008.5
20260903081503 55 108 0.0 2.6 0.00 0.31 0.00 84 1008.3
20260903080112 55 121 1.7 2.6 0.00 0.31 0.00 86 1008.1
20260903074620 55 103 0.0 3.5 0.00 0.31 0.00 84 1008.0
20260903073108 55 309 3.5 5.2 0.01 0.31 0.00 84 1007.9
20260903071607 56 146 0.0 3.5 0.01 0.31 0.00 80 1007.7
20260903070051 55 133 1.7 7.8 0.08 0.31 0.00 81 1007.9
20260903064550 55 131 4.3 17.4 0.13 0.31 0.31 82 1007.8
20260903063049 54 131 2.6 7.8 0.15 0.30 0.30 85 1007.8
20260903061554 54 131 1.7 5.2 0.16 0.28 0.28 85 1008.2
20260903060047 55 197 1.7 5.2 0.11 0.22 0.22 82 1008.5
20260903054550 56 194 4.3 12.2 0.07 0.17 0.17 83 1008.4
20260903053049 57 243 12.2 17.4 0.07 0.15 0.15 84 1008.4
20260903051544 57 144 3.5 7.8 0.07 0.13 0.13 82 1007.6
20260903050043 57 139 2.6 7.0 0.07 0.11 0.11 82 1007.6
20260903044542 57 131 1.7 5.2 0.07 0.10 0.10 82 1007.8
20260903043041 57 113 0.9 4.3 0.06 0.08 0.08 84 1007.9
20260903041641 56 127 0.0 2.6 0.06 0.06 0.06 84 1007.9
20260903040039 57 140 0.9 5.2 0.04 0.04 0.04 81 1007.9
20260903034546 58 141 2.6 4.3 0.03 0.03 0.03 80 1007.9
20260903033041 59 170 3.5 6.1 0.01 0.01 0.01 76 1007.9
20260903031539 59 158 2.6 4.3 0.00 0.00 0.00 74 1007.7
20260903030034 60 208 2.6 6.1 0.00 0.00 0.00 72 1007.6
20260903024533 61 210 3.5 7.8 0.00 0.00 0.00 66 1007.3
20260903023036 62 188 6.1 11.3 0.00 0.00 0.00 61 1007.2
20260903021531 63 196 6.1 12.2 0.00 0.00 0.00 58 1007.2
20260903020031 64 202 7.8 13.9 0.00 0.00 0.00 56 1007.2
20260903014544 65 193 11.3 15.6 0.00 0.00 0.00 52 1007.1
20260903013034 64 198 10.4 15.6 0.00 0.00 0.00 55 1007.1
20260903011528 64 195 13.0 19.1 0.00 0.00 0.00 55 1007.1
20260903010028 66 202 12.2 18.2 0.00 0.00 0.00 52 1006.9
20260903004540 65 194 11.3 17.4 0.00 0.00 0.00 52 1006.9
20260903003031 66 233 8.7 16.5 0.00 0.00 0.00 53 1006.8
20260903001526 66 196 9.6 17.4 0.00 0.00 0.00 53 1006.5
20260903000024 67 243 8.7 15.6 0.00 0.00 0.00 55 1006.4
20260902234523 69 250 9.6 23.5 0.00 0.00 0.00 44 1006.2
20260902233024 70 248 11.3 18.2 0.00 0.00 0.00 42 1006.2
20260902231521 71 259 13.0 22.6 0.00 0.00 0.00 39 1006.0
20260902230021 71 241 13.0 26.9 0.00 0.00 0.00 39 1005.5